Las Cruces, NM

7:22 PM MDT on May 25, 2017 (GMT -0600)
Las Cruces International

Weather History for KLRU - November, 2012

Change the Weather History Date:

Saturday, November 17, 2012

  Actual Average Record
Temperature  
Mean Temperature 52 °F -  
Max Temperature 65 °F 60 °F 73 °F (2007)
Min Temperature 39 °F 38 °F 21 °F (2014)
Degree Days  
Heating Degree Days 13    
Growing Degree Days 2 (Base 50)    
Moisture  
Dew Point 29 °F    
Average Humidity 39    
Maximum Humidity 51    
Minimum Humidity 29    
Precipitation  
Precipitation 0.00 in - - ()
Sea Level Pressure  
Sea Level Pressure 30.20 in    
Wind  
Wind Speed 2 mph (SSE)    
Max Wind Speed 9 mph    
Max Gust Speed -    
Visibility 10 miles    
Events      
Averages and records for this station are not official NWS values.
T = Trace of Precipitation, MM = Missing Value Source: NWS Daily Summary

Daily Weather History Graph

Daily Weather History Graph

Search for Another Location

Airport or City:

Trip Planner

Search our weather history database for the weather conditions in past years. The results will help you decide how hot, cold, wet, or windy it might be!

Date:

Astronomy

Nov. 17, 2012 Rise Set
Actual Time 6:39 AM MST 5:06 PM MST
Civil Twilight 6:13 AM MST 5:32 PM MST
Nautical Twilight 5:43 AM MST 6:01 PM MST
Astronomical Twilight 5:14 AM MST 6:31 PM MST
Moon 10:26 AM MST (11/17) 9:18 PM MST (11/17)
Length of Visible Light 11h 19m
Length of Day
10h 26m
Waxing Crescent, 21% of the Moon is Illuminated
Nov 17
Waxing Crescent
Nov 20
First Quarter
Nov 28
Full
Dec 6
Last Quarter
Dec 13
New

Hourly Weather History & Observations

Time (MST) Temp. Windchill Dew Point Humidity Pressure Visibility Wind Dir Wind Speed Gust Speed Precip Events Conditions
12:15 AM 52.0 °F - 26.4 °F 37% 30.23 in 10.0 mi South 3.5 mph - N/A   Overcast
12:35 AM 50.0 °F - 26.4 °F 40% 30.24 in 10.0 mi Calm Calm - N/A   Scattered Clouds
12:55 AM 44.2 °F - 23.0 °F 43% 30.23 in 10.0 mi Calm Calm - N/A   Clear
1:15 AM 43.7 °F - 23.2 °F 44% 30.22 in 10.0 mi Calm Calm - N/A   Clear
1:35 AM 42.1 °F - 22.1 °F 45% 30.21 in 10.0 mi Calm Calm - N/A   Clear
1:55 AM 42.6 °F - 22.8 °F 46% 30.21 in 10.0 mi Calm Calm - N/A   Clear
2:15 AM 41.9 °F - 22.8 °F 47% 30.21 in 10.0 mi Calm Calm - N/A   Clear
2:35 AM 40.8 °F 38.8 °F 22.6 °F 48% 30.21 in 10.0 mi West 3.5 mph - N/A   Clear
2:55 AM 41.9 °F - 22.6 °F 46% 30.21 in 10.0 mi Calm Calm - N/A   Clear
3:15 AM 40.5 °F - 21.7 °F 47% 30.21 in 10.0 mi Calm Calm - N/A   Clear
3:35 AM 41.2 °F - 23.5 °F 50% 30.21 in 10.0 mi Calm Calm - N/A   Clear
3:55 AM 39.0 °F - 21.6 °F 50% 30.21 in 10.0 mi Calm Calm - N/A   Clear
4:15 AM 40.1 °F - 22.6 °F 50% 30.21 in 10.0 mi Calm Calm - N/A   Clear
4:55 AM 40.3 °F - 22.6 °F 49% 30.20 in 10.0 mi Calm Calm - N/A   Clear
5:15 AM 41.2 °F 39.2 °F 24.1 °F 51% 30.21 in 10.0 mi NW 3.5 mph - N/A   Clear
5:35 AM 41.9 °F 39.0 °F 23.9 °F 49% 30.21 in 10.0 mi NNW 4.6 mph - N/A   Clear
5:55 AM 42.1 °F 40.2 °F 24.3 °F 49% 30.21 in 10.0 mi NW 3.5 mph - N/A   Clear
6:15 AM 42.1 °F 40.2 °F 23.9 °F 49% 30.23 in 10.0 mi WNW 3.5 mph - N/A   Clear
6:35 AM 41.7 °F 39.8 °F 23.9 °F 49% 30.23 in 10.0 mi NNW 3.5 mph - N/A   Clear
6:55 AM 42.3 °F - 24.4 °F 49% 30.23 in 10.0 mi Calm Calm - N/A   Clear
7:15 AM 42.1 °F - 23.7 °F 48% 30.23 in 10.0 mi Calm Calm - N/A   Clear
7:35 AM 46.0 °F - 25.2 °F 44% 30.25 in 10.0 mi Calm Calm - N/A   Clear
7:55 AM 51.1 °F - 25.5 °F 37% 30.25 in 10.0 mi Calm Calm - N/A   Clear
8:15 AM 52.5 °F - 25.7 °F 35% 30.25 in 10.0 mi Calm Calm - N/A   Clear
8:35 AM 53.8 °F - 26.2 °F 35% 30.26 in 10.0 mi Calm Calm - N/A   Clear
9:15 AM 55.6 °F - 27.1 °F 34% 30.27 in 10.0 mi Calm Calm - N/A   Clear
9:35 AM 56.3 °F - 27.3 °F 33% 30.27 in 10.0 mi Calm Calm - N/A   Scattered Clouds
10:55 AM 59.9 °F - 28.2 °F 30% 30.28 in 10.0 mi South 9.2 mph - N/A   Clear
11:15 AM 61.7 °F - 30.7 °F 31% 30.26 in 10.0 mi SSE 6.9 mph - N/A   Scattered Clouds
11:35 AM 61.5 °F - 31.1 °F 32% 30.25 in 10.0 mi SE 9.2 mph - N/A   Mostly Cloudy
11:55 AM 61.3 °F - 31.5 °F 32% 30.23 in 10.0 mi SE 5.8 mph - N/A   Overcast
12:15 PM 61.9 °F - 31.6 °F 32% 30.23 in 10.0 mi SSE 6.9 mph - N/A   Overcast
12:55 PM 61.9 °F - 31.8 °F 32% 30.21 in 10.0 mi Calm Calm - N/A   Clear
1:15 PM 63.0 °F - 32.0 °F 31% 30.21 in 10.0 mi West 5.8 mph - N/A   Scattered Clouds
1:55 PM 63.9 °F - 32.0 °F 30% 30.19 in 10.0 mi Calm Calm - N/A   Mostly Cloudy
2:15 PM 64.6 °F - 32.0 °F 30% 30.19 in 10.0 mi SE 3.5 mph - N/A   Mostly Cloudy
3:15 PM 65.5 °F - 32.0 °F 29% 30.17 in 10.0 mi ESE 5.8 mph - N/A   Clear
3:35 PM 65.1 °F - 32.0 °F 29% 30.18 in 10.0 mi SE 4.6 mph - N/A   Scattered Clouds
3:55 PM 64.9 °F - 32.2 °F 29% 30.17 in 10.0 mi ESE 4.6 mph - N/A   Mostly Cloudy
4:15 PM 64.8 °F - 32.0 °F 29% 30.18 in 10.0 mi SE 4.6 mph - N/A   Overcast
4:35 PM 64.8 °F - 32.2 °F 30% 30.18 in 10.0 mi SSE 4.6 mph - N/A   Overcast
4:55 PM 63.9 °F - 32.2 °F 31% 30.17 in 10.0 mi SE 5.8 mph - N/A   Mostly Cloudy
5:15 PM 62.8 °F - 32.2 °F 32% 30.16 in 10.0 mi ESE 5.8 mph - N/A   Scattered Clouds
5:35 PM 61.3 °F - 32.0 °F 33% 30.17 in 10.0 mi SE 5.8 mph - N/A   Scattered Clouds
5:55 PM 60.6 °F - 32.0 °F 34% 30.17 in 10.0 mi SSE 4.6 mph - N/A   Clear
6:15 PM 60.3 °F - 32.0 °F 34% 30.17 in 10.0 mi SE 4.6 mph - N/A   Clear
6:35 PM 59.5 °F - 31.8 °F 35% 30.18 in 10.0 mi SE 3.5 mph - N/A   Clear
6:55 PM 59.0 °F - 31.8 °F 36% 30.17 in 10.0 mi ESE 4.6 mph - N/A   Clear
7:15 PM 58.3 °F - 32.0 °F 37% 30.17 in 10.0 mi ESE 3.5 mph - N/A   Scattered Clouds
7:35 PM 58.3 °F - 32.0 °F 37% 30.17 in 10.0 mi ESE 3.5 mph - N/A   Scattered Clouds
7:55 PM 57.2 °F - 32.4 °F 39% 30.18 in 10.0 mi Calm Calm - N/A   Clear
8:15 PM 55.6 °F - 32.0 °F 41% 30.18 in 10.0 mi SE 3.5 mph - N/A   Clear
8:35 PM 56.3 °F - 32.2 °F 40% 30.17 in 10.0 mi SE 3.5 mph - N/A   Clear
8:55 PM 56.5 °F - 33.1 °F 41% 30.17 in 10.0 mi SE 4.6 mph - N/A   Clear
9:15 PM 57.4 °F - 33.4 °F 40% 30.17 in 10.0 mi SSE 3.5 mph - N/A   Clear
9:35 PM 55.8 °F - 33.4 °F 43% 30.17 in 10.0 mi South 4.6 mph - N/A   Scattered Clouds
9:55 PM 52.5 °F - 32.4 °F 46% 30.17 in 10.0 mi South 3.5 mph - N/A   Clear
10:35 PM 53.6 °F - 32.0 °F 44% 30.17 in 10.0 mi South 3.5 mph - N/A   Clear
10:55 PM 57.2 °F - 34.7 °F 43% 30.17 in 10.0 mi SSW 6.9 mph - N/A   Clear
11:15 PM 56.7 °F - 34.3 °F 43% 30.17 in 10.0 mi SSW 5.8 mph - N/A   Scattered Clouds
11:35 PM 55.9 °F - 34.2 °F 44% 30.16 in 10.0 mi SSW 6.9 mph - N/A   Clear
11:55 PM 55.4 °F - 34.2 °F 45% 30.16 in 10.0 mi SW 5.8 mph - N/A   Clear